Weather History for Evanston, WY

Change the Weather History Date:

Tuesday, March 5, 2013

  Actual Average Record
Temperature  
Mean Temperature -4 °C -3 °C  
Max Temperature 4 °C 2 °C 8 °C (2012)
Min Temperature -13 °C -7 °C -16 °C (1998)
Degree Days  
Heating Degree Days 41 38  
Month to date heating degree days 178 192  
Since 1 July heating degree days 5773 6200  
Cooling Degree Days 0 0  
Month to date cooling degree days 0 0  
Year to date cooling degree days 0 0  
Moisture  
Dew Point -13 °C    
Average Humidity 51    
Maximum Humidity 73    
Minimum Humidity 29    
Precipitation  
Precipitation 0.00 mm 0.51 mm 0.33 mm (2009)
Month to date precipitation T 0.11  
Year to date precipitation 0.47 1.26  
Sea Level Pressure  
Sea Level Pressure 1023 hPa    
Wind  
Wind Speed 10 km/h (ESE)    
Max Wind Speed 21 km/h    
Max Gust Speed 27 km/h    
Visibility 16 kilometers    
Events      
T = Trace of Precipitation, MM = Missing Value Source: NWS Daily Summary

Daily Weather History Graph

Daily Weather History Graph

Search for Another Location

Airport:

Trip Planner

Search our weather history database for the weather conditions in past years. The results will help you decide how hot, cold, wet, or windy it might be!

Date:

Astronomy

Mar. 05, 2013 Rise Set
Actual Time 6:51 AM MST 6:19 PM MST
Civil Twilight 6:24 AM MST 6:47 PM MST
Nautical Twilight 5:52 AM MST 7:19 PM MST
Astronomical Twilight 5:20 AM MST 7:51 PM MST
Moon 2:10 AM MST (3/5) 11:59 AM MST (3/5)
Length of Visible Light 12h 23m
Length of Day
11h 28m
Last Quarter, 40% of the Moon is Illuminated
Mar 5
Last Quarter
Mar 11
New
Mar 19
First Quarter
Mar 27
Full
Apr 2
Last Quarter

Hourly Weather History & Observations

Time (MST) Temp. Windchill Dew Point Humidity Pressure Visibility Wind Dir Wind Speed Gust Speed Precip Events Conditions
12:53 AM -10.0 °C -13.2 °C -15.0 °C 67% 1026.5 hPa 16.1 km East 5.6 km/h / 1.5 m/s - N/A   Clear
1:53 AM -10.6 °C -14.9 °C -15.0 °C 71% 1027.0 hPa 16.1 km SE 7.4 km/h / 2.1 m/s - N/A   Clear
2:53 AM -12.2 °C -16.8 °C -15.6 °C 76% 1027.2 hPa 16.1 km SSE 7.4 km/h / 2.1 m/s - N/A   Clear
3:53 AM -11.7 °C -17.0 °C -15.6 °C 73% 1026.9 hPa 16.1 km SE 9.3 km/h / 2.6 m/s - N/A   Clear
4:53 AM -10.6 °C -14.9 °C -16.1 °C 65% 1026.4 hPa 16.1 km SSE 7.4 km/h / 2.1 m/s - N/A   Clear
5:53 AM -10.6 °C -15.7 °C -16.1 °C 65% 1026.6 hPa 16.1 km SSE 9.3 km/h / 2.6 m/s - N/A   Clear
6:53 AM -11.7 °C -17.0 °C -17.8 °C 61% 1027.6 hPa 16.1 km SE 9.3 km/h / 2.6 m/s - N/A   Clear
7:53 AM -9.4 °C -12.6 °C -17.2 °C 54% 1027.3 hPa 16.1 km South 5.6 km/h / 1.5 m/s - N/A   Clear
8:53 AM -7.8 °C - -15.0 °C 57% 1027.0 hPa 16.1 km Calm Calm - N/A   Clear
9:53 AM -6.1 °C -10.3 °C -16.7 °C 44% 1026.2 hPa 16.1 km SSE 9.3 km/h / 2.6 m/s - N/A   Clear
10:53 AM -3.9 °C -6.3 °C -16.1 °C 39% 1025.2 hPa 16.1 km Variable 5.6 km/h / 1.5 m/s - N/A   Clear
11:53 AM -0.6 °C - -14.4 °C 35% 1023.5 hPa 16.1 km Calm Calm - N/A   Clear
12:53 PM 0.6 °C -1.8 °C -14.4 °C 32% 1022.7 hPa 16.1 km Variable 7.4 km/h / 2.1 m/s - N/A   Clear
1:53 PM 1.7 °C -2.3 °C -11.7 °C 37% 1021.8 hPa 16.1 km East 14.8 km/h / 4.1 m/s - N/A   Clear
2:53 PM 2.8 °C -0.6 °C -10.6 °C 37% 1021.0 hPa 16.1 km East 13.0 km/h / 3.6 m/s - N/A   Clear
3:53 PM 3.3 °C 0.4 °C -9.4 °C 39% 1019.6 hPa 16.1 km ESE 11.1 km/h / 3.1 m/s - N/A   Clear
4:53 PM 3.3 °C 0.0 °C -7.8 °C 45% 1018.5 hPa 16.1 km East 13.0 km/h / 3.6 m/s - N/A   Clear
5:53 PM 1.1 °C -2.2 °C -8.3 °C 50% 1019.0 hPa 16.1 km NE 11.1 km/h / 3.1 m/s - N/A   Clear
6:53 PM 0.0 °C -3.1 °C -8.3 °C 54% 1020.1 hPa 16.1 km NNE 9.3 km/h / 2.6 m/s - N/A   Clear
7:53 PM -0.6 °C -4.7 °C -9.4 °C 52% 1019.9 hPa 16.1 km ENE 13.0 km/h / 3.6 m/s - N/A   Clear
8:53 PM -1.7 °C -6.4 °C -10.0 °C 54% 1019.3 hPa 16.1 km East 14.8 km/h / 4.1 m/s - N/A   Clear
9:53 PM -1.7 °C -7.1 °C -10.6 °C 51% 1018.9 hPa 16.1 km East 18.5 km/h / 5.1 m/s - N/A   Clear
10:53 PM -2.2 °C -8.0 °C -11.1 °C 51% 1017.9 hPa 16.1 km East 20.4 km/h / 5.7 m/s - N/A   Clear
11:53 PM -2.2 °C -7.7 °C -11.1 °C 51% 1016.4 hPa 16.1 km East 18.5 km/h / 5.1 m/s - N/A   Clear